Flag for U.S.A. Weather past 2 weeks in Lexington-Fayette, Kentucky, U.S.A.

Now
84 °F

Sunny.


Feels Like: 84 °F
Forecast: 58 / 84 °F
Wind: 6 mph from North

Location: Blue Grass Airport

Current Time: Aug 2, 2015 at 3:06:04 PM

Latest Report: Aug 2, 2015 at 1:54 PM


Visibility: 10 mi

Pressure: 29.98 "Hg

Humidity: 46%

Dew point: 61 °F

Location of Lexington-FayetteLocation

Historic Weather in Lexington-Fayette — Graph

°F

Lexington-Fayette temperature yesterday

Maximum temperature yesterday: 85 °F (at 1:54 PM)
Minimum temperature yesterday: 64 °F (at 6:54 AM)
Average temperature yesterday: 75 °F

Past Weeks' High & Low Weather Summary

 TemperatureHumidityPressure
High90 °F (Jul 18, 2:54 PM)97% (Jul 20, 12:54 AM)30.08 "Hg (Jul 20, 12:54 AM)
Low60 °F (Aug 2, 4:54 AM)39% (Aug 1, 3:54 PM)29.74 "Hg (Jul 21, 4:54 AM)
Average77 °F72%29.96 "Hg
* Reported Jul 18 1:54 PM — Aug 2 1:54 PM, Lexington-Fayette, Weather by CustomWeather, © 2015

Note: Actual official high and low records may vary slightly from our data, if they occured in-between our weather recording intervals... More about our weather records

Advertising

Lexington-Fayette weather history for previous 24 hours

 ConditionsComfort  
Time TempWeatherWind HumidityBarometerVisibility
1:54 PM
Sun, Aug 2
84 °FSunny.6 mph46%29.98 "Hg10 mi
12:54 PM82 °FSunny.5 mph46%29.99 "Hg10 mi
11:54 AM80 °FSunny.3 mph49%30.01 "Hg10 mi
10:54 AM79 °FSunny.6 mph52%30.00 "Hg10 mi
9:54 AM76 °FSunny.6 mph64%30.00 "Hg10 mi
8:54 AM70 °FSunny.3 mph79%30.00 "Hg10 mi
7:54 AM64 °FSunny.6 mph90%29.99 "Hg10 mi
6:54 AM64 °FClear.No wind84%29.98 "Hg10 mi
5:54 AM61 °FClear.No wind93%29.98 "Hg10 mi
4:54 AM60 °FClear.3 mph93%29.98 "Hg10 mi
3:54 AM62 °FClear.No wind90%29.99 "Hg10 mi
2:54 AM64 °FClear.No wind84%29.99 "Hg10 mi
1:54 AM64 °FClear.No wind84%29.99 "Hg10 mi
12:54 AM65 °FClear.No wind85%29.99 "Hg10 mi
11:54 PM
Sat, Aug 1
66 °FClear.No wind81%29.98 "Hg10 mi
10:54 PM68 °FClear.No wind76%29.98 "Hg10 mi
9:54 PM72 °FClear.3 mph64%29.98 "Hg10 mi
8:54 PM74 °FSunny.7 mph60%29.97 "Hg10 mi
7:54 PM79 °FSunny.7 mph50%29.96 "Hg10 mi
6:54 PM83 °FSunny.5 mph41%29.96 "Hg10 mi
5:54 PM82 °FSunny.8 mph40%29.96 "Hg10 mi
4:54 PM85 °FSunny.9 mph39%29.96 "Hg10 mi
3:54 PM85 °FSunny.N/A39%29.97 "Hg10 mi
Weather by CustomWeather, © 2015

See weather overviewHow to use our weather pages